Location: Acequia del Cap
(41.7000°N, 0.6167°E)
Time: 00:49:28
(UTC+00:00)

AQUA - Pass Details

Date: 07 August 2020
Orbit: 700 x 704 km, 98.2° (Epoch: 22 September)

Event Time Altitude Azimuth Distance (km) Brightness Sun altitude
Rises 02:17:12 0° 8° (N) 3,101 8.2 -24.3°
Reaches altitude 10° 02:19:30 10° 4° (N) 2,178 7.1 -24.0°
Maximum altitude 02:24:09 55° 288° (WNW) 842 4.0 -23.5°
Enters shadow 02:24:23 55° 275° (W) 848 4.0 -23.5°
